TimePDT,TemperatureF,Dew PointF,Humidity,Sea Level PressureIn,VisibilityMPH,Wind Direction,Wind SpeedMPH,Gust SpeedMPH,PrecipitationIn,Events,Conditions,WindDirDegrees,DateUTC
12:53 AM,39.9,33.1,77,30.13,10.0,West,10.4,-,N/A,,Clear,280,2013-03-29 07:53:00
1:53 AM,37.9,30.9,76,30.14,10.0,Calm,Calm,-,N/A,,Clear,0,2013-03-29 08:53:00
2:53 AM,37.0,28.9,73,30.14,10.0,Calm,Calm,-,N/A,,Scattered Clouds,0,2013-03-29 09:53:00
3:53 AM,37.0,30.9,79,30.14,10.0,East,3.5,-,N/A,,Overcast,80,2013-03-29 10:53:00
4:53 AM,36.0,30.9,82,30.16,10.0,NE,5.8,-,N/A,,Scattered Clouds,50,2013-03-29 11:53:00
5:53 AM,35.1,30.0,82,30.17,10.0,East,4.6,-,N/A,,Scattered Clouds,80,2013-03-29 12:53:00
6:53 AM,34.0,30.0,85,30.19,10.0,ENE,5.8,-,N/A,,Mostly Cloudy,70,2013-03-29 13:53:00
7:53 AM,39.9,33.1,77,30.20,10.0,ENE,4.6,-,N/A,,Overcast,60,2013-03-29 14:53:00
8:53 AM,43.0,35.1,74,30.21,10.0,Calm,Calm,-,N/A,,Mostly Cloudy,0,2013-03-29 15:53:00
9:53 AM,46.9,36.0,66,30.21,10.0,Calm,Calm,-,N/A,,Clear,0,2013-03-29 16:53:00
10:53 AM,54.0,37.9,55,30.20,10.0,Variable,4.6,-,N/A,,Overcast,0,2013-03-29 17:53:00
11:53 AM,60.1,37.9,44,30.20,10.0,WNW,5.8,-,N/A,,Overcast,300,2013-03-29 18:53:00
12:53 PM,64.9,36.0,34,30.18,10.0,NNW,6.9,-,N/A,,Overcast,340,2013-03-29 19:53:00
1:53 PM,62.1,34.0,35,30.18,10.0,Calm,Calm,-,N/A,,Overcast,0,2013-03-29 20:53:00
2:53 PM,66.0,35.1,32,30.17,10.0,Calm,Calm,-,N/A,,Overcast,0,2013-03-29 21:53:00
3:53 PM,64.9,35.1,33,30.16,10.0,WSW,4.6,-,N/A,,Scattered Clouds,240,2013-03-29 22:53:00
4:53 PM,66.9,34.0,30,30.15,10.0,Variable,3.5,-,N/A,,Mostly Cloudy,0,2013-03-29 23:53:00
5:53 PM,64.9,34.0,32,30.15,10.0,WSW,3.5,-,N/A,,Mostly Cloudy,250,2013-03-30 00:53:00
6:53 PM,61.0,36.0,39,30.16,10.0,WNW,9.2,-,N/A,,Mostly Cloudy,300,2013-03-30 01:53:00
7:53 PM,55.0,36.0,49,30.17,10.0,NNW,11.5,-,N/A,,Partly Cloudy,340,2013-03-30 02:53:00
8:53 PM,52.0,37.0,57,30.19,10.0,NW,10.4,-,N/A,,Partly Cloudy,320,2013-03-30 03:53:00
9:53 PM,46.9,36.0,66,30.21,10.0,WNW,6.9,-,N/A,,Clear,290,2013-03-30 04:53:00
10:53 PM,45.0,35.1,68,30.21,10.0,WNW,4.6,-,N/A,,Clear,290,2013-03-30 05:53:00
11:53 PM,48.0,36.0,63,30.21,10.0,Calm,Calm,-,N/A,,Clear,0,2013-03-30 06:53:00